Regional Weather Roundup
Issued by NWS Green Bay, WI

Home | Current Version | Previous Version | Graphics & Text | Print | Product List | Glossary Off
Versions: 1 2 3 4 5 6 7 8 9 10 11 12 13 14 15 16 17 18 19 20 21 22 23 24 25 26 27 28 29 30 31 32 33 34 35 36 37 38 39 40 41 42 43 44 45 46 47 48 49 50

000
ASUS43 KGRB 172100
RWRGRB

NORTH-CENTRAL AND NORTHEAST WISCONSIN REGIONAL WEATHER ROUNDUP
NATIONAL WEATHER SERVICE GREEN BAY WI
300 PM CST FRI NOV 17 2017

WIZ005-009-010>012-018-019-172200-
NORTH CENTRAL WISCONSIN

CITY           SKY/WX    TMP DP  RH WIND       PRES   REMARKS
IRONWOOD       LGT SNOW N/A N/A N/A SW6       29.64F
MANITOWISH WTR NOT AVBL
ARBOR VITAE    NOT AVBL
EAGLE RIVER    MIX PCPN  32  32 100 SW3       29.65F
LAND O LAKES   NOT AVBL
RHINELANDER    MIX PCPN  33  33 100 S7        29.66F FOG
PHILLIPS       CLOUDY    32  32 100 S5        29.65S FOG
ANTIGO         NOT AVBL
TOMAHAWK       NOT AVBL
MERRILL        DRIZZLE   34  33  96 CALM      29.68F
$$

WIZ013-073-172200-
NORTHEAST WISCONSIN

CITY           SKY/WX    TMP DP  RH WIND       PRES   REMARKS
IRON MOUNTAIN  LGT RAIN  37  32  82 W8        29.68S
MARINETTE      LGT RAIN  41  37  86 SW14G22   29.73F
$$

WIZ017-030-035>037-045-172200-
CENTRAL WISCONSIN

CITY           SKY/WX    TMP DP  RH WIND       PRES   REMARKS
MEDFORD        NOT AVBL
WAUSAU         CLOUDY    34  32  92 S7        29.66S FOG
MOSINEE        CLOUDY    34  32  93 S8        29.67F FOG
MARSHFIELD     LGT RAIN  34  31  88 S7        29.65S FOG
WISC RAPIDS    CLOUDY    37  32  82 VRB7      29.68S
STEVENS POINT  NOT AVBL
WAUPACA        NOT AVBL
SHAWANO        DRIZZLE   39  34  80 S3        29.70F
CLINTONVILLE   NOT AVBL
WAUTOMA        CLOUDY    37  32  82 S12       29.69F
$$

WIZ038-039-048-051-172200-
FOX VALLEY

CITY           SKY/WX    TMP DP  RH WIND       PRES   REMARKS
NWS GREEN BAY  LGT RAIN  40  36  86 S15G22    29.71F
APPLETON       CLOUDY    37  30  75 S16       29.69F
OSHKOSH        LGT RAIN  39  33  79 S15       29.70F
FOND DU LAC    CLOUDY    41  31  67 S22       29.70F
$$

WIZ022-050-052-172200-
EAST CENTRAL WISCONSIN

CITY           SKY/WX    TMP DP  RH WIND       PRES   REMARKS
EPHRAIM        NOT AVBL
WASHINGTON ISL NOT AVBL
STURGEON BAY   LGT RAIN  41  37  86 S26G36    29.69F
MANITOWOC      CLOUDY    41  37  86 S21G30    29.74F
SHEBOYGAN      CLOUDY    40  38  93 S21G28    29.75F
$$

LMZ563-521-522-541>543-172200-
LAKESHORE

STATION/POSITION TIME  TEMP    WIND        PRES    VSBY  WAVE
                       AIR SEA DIR/SP/G                  HT/PER
                 (UTC) (F)     (DEG/KT/KT) (MB)    (MI)  (FT/S)
SHEBOYGAN LKSHOR 2000   41     170/ 27/ 30 1008.9F
NORTHPORT PIER   2040   43     160/ 14/ 23 1006.8F
N MID LAKE BUOY  1950   41 49  170/ 25/ 31 1009.5F         8/ 6
SISTER BAY LKSHO 2019   43     170/ 25/ 35   N/A
$$



USA.gov is the U.S. government's official web portal to all federal, state and local government web resources and services.